Voltar ao catálogo

SL-8 R/B

AtivoLEO
NORAD 18945·ROCKET BODY·🇷🇺 Russia

Lançado Mar 11, 1988 de Plesetsk Cosmodrome

Loading…

Próximas Passagens (próximas 24 horas)

TLE

AtualizadoSource: Space-Track

Época: Sep 14, 2026, 06:56 UTC

1 18945U 88016J   26257.28945045  .00000028  00000-0  38526-3 0  9996
2 18945  74.0125 356.3651 0140650 328.9562  56.7998 12.24056310720825

Acompanhe SL-8 R/B em tempo real com AllMySat

Download on the App Store